Zurück zum Katalog

SITRO-AIS-25

AktivKommunikationPO
NORAD 59066·PAYLOAD·🇷🇺 Russia
Dieser Satellitenname wurde noch nicht durch offizielle Quellen bestätigt.

Gestartet Feb 29, 2024 von Vostochny Cosmodrome

Loading…

Nächste Überflüge (nächste 24 Stunden)

TLE

AktuellSource: Space-Track

Epoche: Sep 14, 2026, 12:55 UTC

1 59066U 24039R   26257.53862509  .00002871  00000-0  22186-3 0  9994
2 59066  95.3818 296.4679 0143893  16.3384 344.2409 14.94035074138069

Verfolge SITRO-AIS-25 in Echtzeit mit AllMySat

Download on the App Store